TimeEST,TemperatureF,Dew PointF,Humidity,Sea Level PressureIn,VisibilityMPH,Wind Direction,Wind SpeedMPH,Gust SpeedMPH,PrecipitationIn,Events,Conditions,WindDirDegrees,DateUTC
12:15 AM,19.4,1.4,46,29.97,10.0,WNW,4.6,-,N/A,,Clear,300,2014-01-26 05:15:00
12:35 AM,19.4,1.4,46,29.97,10.0,WNW,3.5,-,N/A,,Clear,300,2014-01-26 05:35:00
12:55 AM,17.6,1.4,49,29.97,10.0,NNW,4.6,-,N/A,,Clear,340,2014-01-26 05:55:00
1:15 AM,17.6,1.4,49,29.96,10.0,West,3.5,-,N/A,,Clear,270,2014-01-26 06:15:00
1:35 AM,17.6,1.4,49,29.96,10.0,WNW,3.5,-,N/A,,Clear,300,2014-01-26 06:35:00
1:55 AM,15.8,1.4,53,29.94,10.0,Calm,Calm,-,N/A,,Clear,0,2014-01-26 06:55:00
2:15 AM,8.6,1.4,73,29.94,10.0,Calm,Calm,-,N/A,,Clear,0,2014-01-26 07:15:00
2:35 AM,10.4,1.4,67,29.94,10.0,SW,4.6,-,N/A,,Clear,230,2014-01-26 07:35:00
2:55 AM,10.4,1.4,67,29.94,10.0,SSW,3.5,-,N/A,,Clear,200,2014-01-26 07:55:00
3:15 AM,10.4,1.4,67,29.97,10.0,WSW,4.6,-,N/A,,Clear,240,2014-01-26 08:15:00
3:35 AM,12.2,3.2,67,29.96,10.0,Calm,Calm,-,N/A,,Scattered Clouds,0,2014-01-26 08:35:00
3:55 AM,12.2,3.2,67,29.95,10.0,SSW,5.8,-,N/A,,Scattered Clouds,200,2014-01-26 08:55:00
4:15 AM,14.0,3.2,62,29.95,10.0,SW,4.6,-,N/A,,Mostly Cloudy,220,2014-01-26 09:15:00
4:35 AM,14.0,5.0,67,29.93,10.0,SSW,5.8,-,N/A,,Overcast,210,2014-01-26 09:35:00
4:55 AM,15.8,5.0,62,29.92,10.0,Calm,Calm,-,N/A,,Overcast,0,2014-01-26 09:55:00
5:15 AM,15.8,5.0,62,29.91,10.0,South,3.5,-,N/A,,Overcast,190,2014-01-26 10:15:00
5:35 AM,15.8,5.0,62,29.89,10.0,South,4.6,-,N/A,,Overcast,180,2014-01-26 10:35:00
5:55 AM,15.8,5.0,62,29.89,10.0,SSW,4.6,-,N/A,,Overcast,200,2014-01-26 10:55:00
6:15 AM,15.8,6.8,68,29.88,10.0,Calm,Calm,-,N/A,,Mostly Cloudy,0,2014-01-26 11:15:00
6:35 AM,17.6,6.8,63,29.86,10.0,SSW,5.8,-,N/A,,Mostly Cloudy,200,2014-01-26 11:35:00
6:55 AM,17.6,8.6,68,29.84,10.0,SSW,6.9,-,N/A,,Overcast,200,2014-01-26 11:55:00
7:15 AM,17.6,8.6,68,29.83,10.0,SSW,10.4,-,N/A,,Overcast,200,2014-01-26 12:15:00
7:35 AM,19.4,6.8,58,29.81,10.0,SSW,11.5,-,N/A,,Overcast,200,2014-01-26 12:35:00
7:55 AM,21.2,6.8,54,29.79,10.0,SSW,11.5,-,N/A,,Mostly Cloudy,200,2014-01-26 12:55:00
8:15 AM,21.2,6.8,54,29.80,10.0,SSW,8.1,-,N/A,,Mostly Cloudy,210,2014-01-26 13:15:00
8:35 AM,23.0,8.6,54,29.77,10.0,SSW,12.7,-,N/A,,Overcast,200,2014-01-26 13:35:00
8:55 AM,23.0,8.6,54,29.77,10.0,SSW,10.4,-,N/A,,Mostly Cloudy,200,2014-01-26 13:55:00
9:15 AM,24.8,8.6,50,29.75,10.0,SSW,13.8,-,N/A,,Mostly Cloudy,200,2014-01-26 14:15:00
9:35 AM,26.6,8.6,47,29.75,10.0,SW,15.0,23.0,N/A,,Overcast,220,2014-01-26 14:35:00
9:55 AM,28.4,8.6,43,29.75,10.0,SW,16.1,20.7,N/A,,Overcast,220,2014-01-26 14:55:00
10:15 AM,30.2,10.4,44,29.73,10.0,SSW,20.7,24.2,N/A,,Overcast,210,2014-01-26 15:15:00
10:35 AM,30.2,10.4,44,29.73,10.0,SSW,19.6,25.3,N/A,,Overcast,210,2014-01-26 15:35:00
10:55 AM,32.0,10.4,41,29.73,10.0,SSW,20.7,27.6,N/A,,Overcast,210,2014-01-26 15:55:00
11:15 AM,33.8,12.2,41,29.73,10.0,SSW,18.4,28.8,N/A,,Overcast,210,2014-01-26 16:15:00
11:35 AM,35.6,17.6,48,29.73,10.0,SSW,19.6,24.2,N/A,,Overcast,210,2014-01-26 16:35:00
11:55 AM,37.4,21.2,52,29.73,10.0,SSW,16.1,23.0,N/A,,Scattered Clouds,210,2014-01-26 16:55:00
12:15 PM,41.0,23.0,49,29.73,10.0,SW,19.6,31.1,N/A,,Clear,220,2014-01-26 17:15:00
12:35 PM,41.0,23.0,49,29.72,10.0,SW,23.0,32.2,N/A,,Clear,230,2014-01-26 17:35:00
12:55 PM,42.8,24.8,49,29.71,10.0,SW,15.0,28.8,N/A,,Clear,220,2014-01-26 17:55:00
1:15 PM,42.8,26.6,53,29.70,10.0,SW,20.7,25.3,N/A,,Clear,230,2014-01-26 18:15:00
1:35 PM,42.8,26.6,53,29.68,10.0,SW,18.4,25.3,N/A,,Clear,230,2014-01-26 18:35:00
1:55 PM,44.6,28.4,53,29.68,10.0,SW,17.3,26.5,N/A,,Clear,230,2014-01-26 18:55:00
2:15 PM,44.6,28.4,53,29.67,10.0,WSW,15.0,20.7,N/A,,Clear,240,2014-01-26 19:15:00
2:35 PM,46.4,28.4,50,29.66,10.0,SW,13.8,23.0,N/A,,Clear,230,2014-01-26 19:35:00
2:55 PM,46.4,30.2,53,29.65,10.0,SW,16.1,28.8,N/A,,Clear,230,2014-01-26 19:55:00
3:15 PM,48.2,30.2,50,29.66,10.0,WSW,11.5,20.7,N/A,,Clear,240,2014-01-26 20:15:00
3:35 PM,48.2,30.2,50,29.65,10.0,WSW,18.4,26.5,N/A,,Clear,250,2014-01-26 20:35:00
3:55 PM,50.0,30.2,47,29.66,10.0,WSW,9.2,25.3,N/A,,Clear,250,2014-01-26 20:55:00
4:15 PM,50.0,30.2,47,29.65,10.0,WSW,10.4,26.5,N/A,,Clear,250,2014-01-26 21:15:00
4:35 PM,50.0,32.0,50,29.65,10.0,WSW,9.2,18.4,N/A,,Clear,240,2014-01-26 21:35:00
4:55 PM,50.0,32.0,50,29.64,10.0,SW,9.2,16.1,N/A,,Clear,220,2014-01-26 21:55:00
5:15 PM,50.0,32.0,50,29.63,10.0,SW,10.4,-,N/A,,Clear,220,2014-01-26 22:15:00
5:35 PM,50.0,32.0,50,29.62,10.0,SW,11.5,-,N/A,,Clear,220,2014-01-26 22:35:00
5:55 PM,48.2,32.0,54,29.63,10.0,SW,10.4,-,N/A,,Clear,220,2014-01-26 22:55:00
6:15 PM,46.4,32.0,57,29.63,10.0,SW,9.2,-,N/A,,Clear,220,2014-01-26 23:15:00
6:35 PM,46.4,32.0,57,29.63,10.0,SW,8.1,-,N/A,,Clear,220,2014-01-26 23:35:00
6:55 PM,46.4,32.0,57,29.64,10.0,SW,10.4,-,N/A,,Clear,220,2014-01-26 23:55:00
7:15 PM,44.6,32.0,61,29.64,10.0,SW,8.1,-,N/A,,Clear,220,2014-01-27 00:15:00
7:35 PM,44.6,32.0,61,29.65,10.0,SW,11.5,-,N/A,,Clear,220,2014-01-27 00:35:00
7:55 PM,46.4,32.0,57,29.66,10.0,SW,12.7,-,N/A,,Clear,220,2014-01-27 00:55:00
8:15 PM,46.4,32.0,57,29.66,10.0,SW,12.7,-,N/A,,Clear,220,2014-01-27 01:15:00
8:35 PM,46.4,32.0,57,29.67,10.0,SW,10.4,20.7,N/A,,Clear,220,2014-01-27 01:35:00
8:55 PM,44.6,32.0,61,29.67,10.0,SW,9.2,-,N/A,,Clear,220,2014-01-27 01:55:00
9:15 PM,44.6,32.0,61,29.67,10.0,SSW,11.5,-,N/A,,Clear,210,2014-01-27 02:15:00
9:35 PM,44.6,32.0,61,29.68,10.0,SW,13.8,19.6,N/A,,Clear,220,2014-01-27 02:35:00
9:55 PM,44.6,32.0,61,29.68,10.0,SW,13.8,21.9,N/A,,Clear,220,2014-01-27 02:55:00
10:15 PM,44.6,32.0,61,29.68,10.0,SW,13.8,21.9,N/A,,Clear,230,2014-01-27 03:15:00
10:35 PM,44.6,32.0,61,29.68,10.0,SW,13.8,-,N/A,,Clear,230,2014-01-27 03:35:00
10:55 PM,44.6,32.0,61,29.68,10.0,SW,13.8,21.9,N/A,,Clear,230,2014-01-27 03:55:00
11:15 PM,44.6,32.0,61,29.68,10.0,SW,15.0,21.9,N/A,,Clear,220,2014-01-27 04:15:00
11:35 PM,44.6,32.0,61,29.68,10.0,SW,12.7,20.7,N/A,,Clear,230,2014-01-27 04:35:00
11:55 PM,44.6,32.0,61,29.69,10.0,SW,11.5,19.6,N/A,,Clear,230,2014-01-27 04:55:00